Location: Gleizolles
(44.4833°N, 6.7667°E)
Time: 03:45:38
(UTC+00:00)

N. Korean satellite - Pass Details

Date: 16 December 2021
Orbit: 447 x 491 km, 97.3° (Epoch: 23 January)

Event Time Altitude Azimuth Distance (km) Brightness Sun altitude
Rises 05:20:09 0° 4° (N) 2,462 10.0 -17.5°
Enters shadow 05:20:21 - 3° (N) 2,376 9.9 -17.5°
Exits shadow 05:28:03 13° 224° (SW) 1,389 8.6 -16.2°
Drops below altitude 10° 05:28:34 10° 220° (SW) 1,589 8.9 -16.1°
Sets 05:30:41 0° 212° (SSW) 2,465 10.0 -15.7°
